sat.trackr.live / text

‹ back to catalog

STARLINK-31886

NORAD 59662 · 2024-084J

PAYLOAD ACTIVE UNKNOWN

§ Identity

Operator
Country
US
Launch date
2024-05-06
Launch site
AFETR
Launch vehicle
Mass (kg)
RCS (m²)

Purposes: comms

External: N2YO · Heavens-Above · Gunter

§ Orbital elements

Epoch: 2026-09-21T14:27:13.341600Z

Period
94.27 min
Inclination
43.0013°
Eccentricity
0.0001213
Mean motion
15.27576317 rev/d
Perigee alt
482.2 km
Apogee alt
483.9 km
Semi-major
6,861.2 km
B*
2.2896e-5
RAAN
15.5433°
Arg perigee
275.9693°
Mean anomaly
84.1020°
Rev number
13,433

§ Raw data

STARLINK-318861 59662U 24084J   26264.60223775  .00000368  00000+0  22896-4 0  99952 59662  43.0013  15.5433 0001213 275.9693  84.1020 15.27576317134333

JSON: /api/v1/satellites/59662 · /tle

For live sub-satellite position, see the globe view (requires WebGL).

§ Visibility from observer

Set your observer location to see the next 7 days of passes ≥ 10°. The values pass through the URL so the page stays shareable.

No JS? Fill the form by hand. The geolocation button needs JavaScript.